Moline, IL

8:44 AM CDT on July 18, 2019 (GMT -0500)
Quad-City International

Weather History for KMLI - June, 2019

Change the Weather History Date:

Friday, June 14, 2019

  Actual Average Record
Temperature  
Mean Temperature 68 °F 71 °F  
Max Temperature 81 °F 82 °F 101 °F (1987)
Min Temperature 55 °F 61 °F 43 °F (1933)
Degree Days  
Heating Degree Days 0 1  
Month to date heating degree days 2 17  
Since 1 June heating degree days 2 17  
Since 1 July heating degree days 6377 6201  
Cooling Degree Days 3 7  
Month to date cooling degree days 90 75  
Year to date cooling degree days 156 151  
Since 1 June cooling degree days 90 75  
Growing Degree Days 17 (Base 50)    
Moisture  
Dew Point 49 °F    
Average Humidity 48    
Maximum Humidity 63    
Minimum Humidity 33    
Precipitation  
Precipitation 0.00 in 0.15 in 4.43 in (1930)
Month to date precipitation 1.14 2.08  
Year to date precipitation 26.22 15.94  
Snow  
Snow 0.00 in 0.00 in - ()
Month to date snowfall 0.0 0.0  
Since 1 June snowfall 0.0 0.0  
Since 1 July snowfall 60.8 31.6  
Snow Depth 0.00 in    
Sea Level Pressure  
Sea Level Pressure 29.93 in    
Wind  
Wind Speed 11 mph (SSW)    
Max Wind Speed 24 mph    
Max Gust Speed 36 mph    
Visibility 10 miles    
Events      
T = Trace of Precipitation, MM = Missing Value Source: NWS Daily Summary

Daily Weather History Graph

Daily Weather History Graph

Search for Another Location

Airport or City:

Astronomy

Jun. 14, 2019 Rise Set
Actual Time 5:27 AM CDT 8:37 PM CDT
Civil Twilight 4:53 AM CDT 9:10 PM CDT
Nautical Twilight 4:10 AM CDT 9:54 PM CDT
Astronomical Twilight 3:18 AM CDT 10:46 PM CDT
Moon 5:57 PM CDT (6/14) 3:48 AM CDT (6/14)
Length of Visible Light 16h 17m
Length of Day
15h 09m
Waxing Gibbous, 92% of the Moon is Illuminated
Jun 14
Waxing Gibbous
Jun 17
Full
Jun 25
Last Quarter
Jul 2
New
Jul 9
First Quarter

Hourly Weather History & Observations

Time (CDT) Temp. Dew Point Humidity Pressure Visibility Wind Dir Wind Speed Gust Speed Precip Events Conditions
12:52 AM 55.9 °F 43.0 °F 62% 30.02 in 10.0 mi Calm Calm - N/A   Clear
1:52 AM 57.0 °F 43.0 °F 59% 30.01 in 10.0 mi Calm Calm - N/A   Clear
2:52 AM 57.9 °F 43.0 °F 58% 30.01 in 10.0 mi SSW 8.1 mph - N/A   Clear
3:52 AM 57.9 °F 43.0 °F 58% 29.99 in 10.0 mi SSW 8.1 mph - N/A   Clear
4:52 AM 57.9 °F 44.1 °F 60% 29.99 in 10.0 mi SSW 6.9 mph - N/A   Clear
5:52 AM 59.0 °F 45.0 °F 60% 29.99 in 10.0 mi SSW 6.9 mph - N/A   Partly Cloudy
6:52 AM 62.1 °F 46.9 °F 58% 29.99 in 10.0 mi SSW 10.4 mph - N/A   Clear
7:52 AM 66.0 °F 48.0 °F 52% 29.99 in 10.0 mi SSW 12.7 mph 21.9 mph N/A   Clear
8:52 AM 69.1 °F 50.0 °F 51% 29.99 in 10.0 mi SSW 12.7 mph 20.7 mph N/A   Clear
9:52 AM 73.9 °F 52.0 °F 46% 29.99 in 10.0 mi SW 17.3 mph 25.3 mph N/A   Clear
10:52 AM 73.0 °F 51.1 °F 46% 29.97 in 10.0 mi SSW 15.0 mph 26.5 mph N/A   Clear
11:52 AM 75.9 °F 53.1 °F 45% 29.94 in 10.0 mi SW 15.0 mph 26.5 mph N/A   Clear
12:52 PM 78.1 °F 50.0 °F 37% 29.91 in 10.0 mi SW 16.1 mph 32.2 mph N/A   Clear
1:52 PM 80.1 °F 48.9 °F 34% 29.87 in 10.0 mi SW 17.3 mph 32.2 mph N/A   Clear
2:52 PM 81.0 °F 48.9 °F 33% 29.85 in 10.0 mi SW 13.8 mph 32.2 mph N/A   Clear
3:52 PM 77.0 °F 50.0 °F 39% 29.83 in 10.0 mi SSW 20.7 mph 28.8 mph N/A   Clear
4:52 PM 75.0 °F 51.1 °F 43% 29.83 in 10.0 mi SSW 15.0 mph 28.8 mph N/A   Partly Cloudy
5:52 PM 73.0 °F 52.0 °F 48% 29.82 in 10.0 mi SW 11.5 mph 24.2 mph N/A   Overcast
6:52 PM 71.1 °F 53.1 °F 53% 29.82 in 10.0 mi South 6.9 mph 18.4 mph N/A   Overcast
7:52 PM 70.0 °F 53.1 °F 55% 29.82 in 10.0 mi South 11.5 mph 21.9 mph N/A   Overcast
8:52 PM 69.1 °F 52.0 °F 54% 29.81 in 10.0 mi South 10.4 mph 19.6 mph N/A   Overcast